Time,TemperatureF,DewpointF,PressureIn,WindDirection,WindDirectionDegrees,WindSpeedMPH,WindSpeedGustMPH,Humidity,HourlyPrecipIn,Conditions,Clouds,dailyrainin,SoftwareType,DateUTC
2013-02-28 00:04:00,-999.0,-99.9,29.88,North,-999,-999.0,-999.0,-999,0.00,,,0.00,weatherlink.com 1.10,2013-02-28 06:04:00,
2013-02-28 00:19:00,-999.0,-99.9,29.88,North,-999,-999.0,-999.0,-999,0.00,,,0.00,weatherlink.com 1.10,2013-02-28 06:19:00,
2013-02-28 00:34:00,-999.0,-99.9,29.88,North,-999,-999.0,-999.0,-999,0.00,,,0.00,weatherlink.com 1.10,2013-02-28 06:34:00,
2013-02-28 00:49:00,-999.0,-99.9,29.88,North,-999,-999.0,-999.0,-999,0.00,,,0.00,weatherlink.com 1.10,2013-02-28 06:49:00,
2013-02-28 01:04:00,-999.0,-99.9,29.88,North,-999,-999.0,-999.0,-999,0.00,,,0.00,weatherlink.com 1.10,2013-02-28 07:04:00,
2013-02-28 01:19:00,-999.0,-99.9,29.88,North,-999,-999.0,-999.0,-999,0.00,,,0.00,weatherlink.com 1.10,2013-02-28 07:19:00,
2013-02-28 01:35:00,-999.0,-99.9,29.88,North,-999,-999.0,-999.0,-999,0.00,,,0.00,weatherlink.com 1.10,2013-02-28 07:35:00,
2013-02-28 01:50:00,-999.0,-99.9,29.88,North,-999,-999.0,-999.0,-999,0.00,,,0.00,weatherlink.com 1.10,2013-02-28 07:50:00,
2013-02-28 02:05:00,-999.0,-99.9,29.88,North,-999,-999.0,-999.0,-999,0.00,,,0.00,weatherlink.com 1.10,2013-02-28 08:05:00,
2013-02-28 02:20:00,-999.0,-99.9,29.88,North,-999,-999.0,-999.0,-999,0.00,,,0.00,weatherlink.com 1.10,2013-02-28 08:20:00,
2013-02-28 02:35:00,-999.0,-99.9,29.88,North,-999,-999.0,-999.0,-999,0.00,,,0.00,weatherlink.com 1.10,2013-02-28 08:35:00,
2013-02-28 02:50:00,-999.0,-99.9,29.88,North,-999,-999.0,-999.0,-999,0.00,,,0.00,weatherlink.com 1.10,2013-02-28 08:50:00,
2013-02-28 03:05:00,-999.0,-99.9,29.88,North,-999,-999.0,-999.0,-999,0.00,,,0.00,weatherlink.com 1.10,2013-02-28 09:05:00,
2013-02-28 03:20:00,-999.0,-99.9,29.88,North,-999,-999.0,-999.0,-999,0.00,,,0.00,weatherlink.com 1.10,2013-02-28 09:20:00,
2013-02-28 03:35:00,-999.0,-99.9,29.88,North,-999,-999.0,-999.0,-999,0.00,,,0.00,weatherlink.com 1.10,2013-02-28 09:35:00,
2013-02-28 03:50:00,-999.0,-99.9,29.89,North,-999,-999.0,-999.0,-999,0.00,,,0.00,weatherlink.com 1.10,2013-02-28 09:50:00,
2013-02-28 04:20:00,-999.0,-99.9,29.90,North,-999,-999.0,-999.0,-999,0.00,,,0.00,weatherlink.com 1.10,2013-02-28 10:20:00,
2013-02-28 04:35:00,-999.0,-99.9,29.91,North,-999,-999.0,-999.0,-999,0.00,,,0.00,weatherlink.com 1.10,2013-02-28 10:35:00,
2013-02-28 04:51:00,-999.0,-99.9,29.91,North,-999,-999.0,-999.0,-999,0.00,,,0.00,weatherlink.com 1.10,2013-02-28 10:51:00,
2013-02-28 05:06:00,-999.0,-99.9,29.92,North,-999,-999.0,-999.0,-999,0.00,,,0.00,weatherlink.com 1.10,2013-02-28 11:06:00,
2013-02-28 05:21:00,-999.0,-99.9,29.92,North,-999,-999.0,-999.0,-999,0.00,,,0.00,weatherlink.com 1.10,2013-02-28 11:21:00,
2013-02-28 05:36:00,-999.0,-99.9,29.92,North,-999,-999.0,-999.0,-999,0.00,,,0.00,weatherlink.com 1.10,2013-02-28 11:36:00,
2013-02-28 05:51:00,-999.0,-99.9,29.93,North,-999,-999.0,-999.0,-999,0.00,,,0.00,weatherlink.com 1.10,2013-02-28 11:51:00,
2013-02-28 06:06:00,-999.0,-99.9,29.93,North,-999,-999.0,-999.0,-999,0.00,,,0.00,weatherlink.com 1.10,2013-02-28 12:06:00,
2013-02-28 06:21:00,-999.0,-99.9,29.94,North,-999,-999.0,-999.0,-999,0.00,,,0.00,weatherlink.com 1.10,2013-02-28 12:21:00,
2013-02-28 06:36:00,-999.0,-99.9,29.94,North,-999,-999.0,-999.0,-999,0.00,,,0.00,weatherlink.com 1.10,2013-02-28 12:36:00,
2013-02-28 06:51:00,-999.0,-99.9,29.94,North,-999,-999.0,-999.0,-999,0.00,,,0.00,weatherlink.com 1.10,2013-02-28 12:51:00,
2013-02-28 07:06:00,-999.0,-99.9,29.95,North,-999,-999.0,-999.0,-999,0.00,,,0.00,weatherlink.com 1.10,2013-02-28 13:06:00,
2013-02-28 07:21:00,-999.0,-99.9,29.95,North,-999,-999.0,-999.0,-999,0.00,,,0.00,weatherlink.com 1.10,2013-02-28 13:21:00,
2013-02-28 07:36:00,-999.0,-99.9,29.96,North,-999,-999.0,-999.0,-999,0.00,,,0.00,weatherlink.com 1.10,2013-02-28 13:36:00,
2013-02-28 07:51:00,-999.0,-99.9,29.96,North,-999,-999.0,-999.0,-999,0.00,,,0.00,weatherlink.com 1.10,2013-02-28 13:51:00,
2013-02-28 08:06:00,34.0,31.0,29.97,NW,318,6.0,13.0,88,0.00,,,0.00,weatherlink.com 1.10,2013-02-28 14:06:00,
2013-02-28 08:21:00,34.1,31.0,29.97,WNW,301,6.0,12.0,88,0.00,,,0.00,weatherlink.com 1.10,2013-02-28 14:21:00,
2013-02-28 08:37:00,34.3,31.0,29.97,West,281,6.0,11.0,88,0.00,,,0.00,weatherlink.com 1.10,2013-02-28 14:37:00,
2013-02-28 08:52:00,34.4,31.0,29.98,WNW,300,5.0,12.0,87,0.00,,,0.00,weatherlink.com 1.10,2013-02-28 14:52:00,
2013-02-28 09:07:00,34.5,31.0,29.98,WNW,301,6.0,10.0,88,0.00,,,0.00,weatherlink.com 1.10,2013-02-28 15:07:00,
2013-02-28 09:22:00,35.1,32.0,29.99,NW,306,5.0,12.0,88,0.00,,,0.00,weatherlink.com 1.10,2013-02-28 15:22:00,
2013-02-28 09:37:00,35.2,32.0,30.00,WNW,298,7.0,9.0,87,0.00,,,0.00,weatherlink.com 1.10,2013-02-28 15:37:00,
2013-02-28 09:52:00,35.5,32.0,30.00,WNW,297,10.0,12.0,87,0.00,,,0.00,weatherlink.com 1.10,2013-02-28 15:52:00,
2013-02-28 10:07:00,35.8,32.0,30.01,WNW,300,7.0,14.0,87,0.00,,,0.00,weatherlink.com 1.10,2013-02-28 16:07:00,
2013-02-28 10:22:00,35.8,32.0,30.01,NW,307,8.0,14.0,86,0.00,,,0.00,weatherlink.com 1.10,2013-02-28 16:22:00,
2013-02-28 10:37:00,36.1,32.0,30.01,WNW,298,5.0,14.0,86,0.00,,,0.00,weatherlink.com 1.10,2013-02-28 16:37:00,
2013-02-28 10:52:00,36.1,32.0,30.01,NW,311,6.0,17.0,86,0.00,,,0.00,weatherlink.com 1.10,2013-02-28 16:52:00,
2013-02-28 11:07:00,36.4,33.0,30.01,West,277,11.0,14.0,86,0.00,,,0.00,weatherlink.com 1.10,2013-02-28 17:07:00,
2013-02-28 11:22:00,36.6,33.0,30.02,NW,312,11.0,13.0,85,0.00,,,0.00,weatherlink.com 1.10,2013-02-28 17:22:00,
2013-02-28 11:37:00,36.5,33.0,30.02,WNW,303,8.0,14.0,86,0.00,,,0.00,weatherlink.com 1.10,2013-02-28 17:37:00,
2013-02-28 11:52:00,36.6,33.0,30.02,WNW,295,6.0,16.0,86,0.00,,,0.00,weatherlink.com 1.10,2013-02-28 17:52:00,
2013-02-28 12:22:00,36.8,33.0,30.01,WNW,303,7.0,15.0,86,0.00,,,0.00,weatherlink.com 1.10,2013-02-28 18:22:00,
2013-02-28 12:37:00,36.8,33.0,30.00,NW,309,5.0,12.0,86,0.00,,,0.00,weatherlink.com 1.10,2013-02-28 18:37:00,
2013-02-28 12:52:00,36.9,33.0,30.01,WNW,299,8.0,11.0,86,0.00,,,0.00,weatherlink.com 1.10,2013-02-28 18:52:00,
2013-02-28 13:07:00,36.9,33.0,30.01,NW,326,9.0,16.0,86,0.00,,,0.00,weatherlink.com 1.10,2013-02-28 19:07:00,
2013-02-28 13:22:00,37.1,33.0,30.01,NW,306,6.0,14.0,86,0.00,,,0.00,weatherlink.com 1.10,2013-02-28 19:22:00,
2013-02-28 13:37:00,36.8,33.0,30.01,NW,313,10.0,14.0,85,0.00,,,0.00,weatherlink.com 1.10,2013-02-28 19:37:00,
2013-02-28 13:52:00,36.9,33.0,30.01,NNW,330,10.0,14.0,86,0.00,,,0.00,weatherlink.com 1.10,2013-02-28 19:52:00,
2013-02-28 14:07:00,37.1,33.0,30.02,NW,315,11.0,15.0,86,0.00,,,0.00,weatherlink.com 1.10,2013-02-28 20:07:00,
2013-02-28 14:22:00,37.4,33.0,30.02,NW,309,9.0,15.0,85,0.00,,,0.00,weatherlink.com 1.10,2013-02-28 20:22:00,
2013-02-28 14:37:00,37.1,33.0,30.02,NW,306,7.0,12.0,85,0.00,,,0.00,weatherlink.com 1.10,2013-02-28 20:37:00,
2013-02-28 14:52:00,36.7,33.0,30.03,NW,324,7.0,14.0,86,0.00,,,0.00,weatherlink.com 1.10,2013-02-28 20:52:00,
2013-02-28 15:07:00,36.6,33.0,30.04,NW,317,8.0,16.0,86,0.00,,,0.00,weatherlink.com 1.10,2013-02-28 21:07:00,
2013-02-28 15:22:00,36.5,33.0,30.04,NW,317,8.0,13.0,86,0.00,,,0.00,weatherlink.com 1.10,2013-02-28 21:22:00,
2013-02-28 15:37:00,36.5,33.0,30.04,WNW,293,7.0,13.0,86,0.00,,,0.00,weatherlink.com 1.10,2013-02-28 21:37:00,
2013-02-28 15:52:00,36.2,32.0,30.05,NW,311,6.0,15.0,86,0.00,,,0.00,weatherlink.com 1.10,2013-02-28 21:52:00,
2013-02-28 16:07:00,36.1,32.0,30.05,NW,305,10.0,14.0,86,0.00,,,0.00,weatherlink.com 1.10,2013-02-28 22:07:00,
2013-02-28 16:22:00,35.9,32.0,30.06,WNW,286,11.0,13.0,86,0.00,,,0.00,weatherlink.com 1.10,2013-02-28 22:22:00,
2013-02-28 16:37:00,36.0,32.0,30.06,NW,306,5.0,15.0,86,0.00,,,0.00,weatherlink.com 1.10,2013-02-28 22:37:00,
2013-02-28 16:52:00,36.0,32.0,30.06,NW,313,8.0,13.0,86,0.00,,,0.00,weatherlink.com 1.10,2013-02-28 22:52:00,
2013-02-28 17:07:00,36.1,32.0,30.06,NW,307,8.0,14.0,86,0.00,,,0.00,weatherlink.com 1.10,2013-02-28 23:07:00,
2013-02-28 17:22:00,36.0,32.0,30.06,NW,317,7.0,13.0,85,0.00,,,0.00,weatherlink.com 1.10,2013-02-28 23:22:00,
2013-02-28 17:37:00,35.8,32.0,30.07,NW,323,8.0,11.0,86,0.00,,,0.00,weatherlink.com 1.10,2013-02-28 23:37:00,
2013-02-28 17:52:00,35.4,32.0,30.07,NW,320,5.0,10.0,88,0.00,,,0.00,weatherlink.com 1.10,2013-02-28 23:52:00,
2013-02-28 18:07:00,35.0,32.0,30.07,WNW,300,6.0,11.0,89,0.00,,,0.00,weatherlink.com 1.10,2013-03-01 00:07:00,
2013-02-28 18:22:00,34.7,32.0,30.07,NW,313,7.0,12.0,89,0.00,,,0.00,weatherlink.com 1.10,2013-03-01 00:22:00,
2013-02-28 18:37:00,-999.0,-99.9,30.07,North,-999,-999.0,-999.0,-999,0.00,,,0.00,weatherlink.com 1.10,2013-03-01 00:37:00,
2013-02-28 18:52:00,-999.0,-99.9,30.08,North,-999,-999.0,-999.0,-999,0.00,,,0.00,weatherlink.com 1.10,2013-03-01 00:52:00,
2013-02-28 19:08:00,-999.0,-99.9,30.08,North,-999,-999.0,-999.0,-999,0.00,,,0.00,weatherlink.com 1.10,2013-03-01 01:08:00,
2013-02-28 19:23:00,-999.0,-99.9,30.08,North,-999,-999.0,-999.0,-999,0.00,,,0.00,weatherlink.com 1.10,2013-03-01 01:23:00,
2013-02-28 19:38:00,-999.0,-99.9,30.08,North,-999,-999.0,-999.0,-999,0.00,,,0.00,weatherlink.com 1.10,2013-03-01 01:38:00,
2013-02-28 19:53:00,-999.0,-99.9,30.08,North,-999,-999.0,-999.0,-999,0.00,,,0.00,weatherlink.com 1.10,2013-03-01 01:53:00,
2013-02-28 20:23:00,-999.0,-99.9,30.08,North,-999,-999.0,-999.0,-999,0.00,,,0.00,weatherlink.com 1.10,2013-03-01 02:23:00,
2013-02-28 20:38:00,-999.0,-99.9,30.09,North,-999,-999.0,-999.0,-999,0.00,,,0.00,weatherlink.com 1.10,2013-03-01 02:38:00,
2013-02-28 20:53:00,-999.0,-99.9,30.09,North,-999,-999.0,-999.0,-999,0.00,,,0.00,weatherlink.com 1.10,2013-03-01 02:53:00,
2013-02-28 21:08:00,-999.0,-99.9,30.09,North,-999,-999.0,-999.0,-999,0.00,,,0.00,weatherlink.com 1.10,2013-03-01 03:08:00,
2013-02-28 21:23:00,-999.0,-99.9,30.09,North,-999,-999.0,-999.0,-999,0.00,,,0.00,weatherlink.com 1.10,2013-03-01 03:23:00,
2013-02-28 21:38:00,-999.0,-99.9,30.09,North,-999,-999.0,-999.0,-999,0.00,,,0.00,weatherlink.com 1.10,2013-03-01 03:38:00,
2013-02-28 21:53:00,-999.0,-99.9,30.09,North,-999,-999.0,-999.0,-999,0.00,,,0.00,weatherlink.com 1.10,2013-03-01 03:53:00,
2013-02-28 22:08:00,-999.0,-99.9,30.09,North,-999,-999.0,-999.0,-999,0.00,,,0.00,weatherlink.com 1.10,2013-03-01 04:08:00,
2013-02-28 22:24:00,-999.0,-99.9,30.08,North,-999,-999.0,-999.0,-999,0.00,,,0.00,weatherlink.com 1.10,2013-03-01 04:24:00,
2013-02-28 22:39:00,-999.0,-99.9,30.08,North,-999,-999.0,-999.0,-999,0.00,,,0.00,weatherlink.com 1.10,2013-03-01 04:39:00,
2013-02-28 22:54:00,-999.0,-99.9,30.08,North,-999,-999.0,-999.0,-999,0.00,,,0.00,weatherlink.com 1.10,2013-03-01 04:54:00,
2013-02-28 23:09:00,-999.0,-99.9,30.07,North,-999,-999.0,-999.0,-999,0.00,,,0.00,weatherlink.com 1.10,2013-03-01 05:09:00,
2013-02-28 23:24:00,-999.0,-99.9,30.07,North,-999,-999.0,-999.0,-999,0.00,,,0.00,weatherlink.com 1.10,2013-03-01 05:24:00,
2013-02-28 23:39:00,-999.0,-99.9,30.07,North,-999,-999.0,-999.0,-999,0.00,,,0.00,weatherlink.com 1.10,2013-03-01 05:39:00,
2013-02-28 23:54:00,-999.0,-99.9,30.06,North,-999,-999.0,-999.0,-999,0.00,,,0.00,weatherlink.com 1.10,2013-03-01 05:54:00,